Terminal Aerodrome Forecast
Issued by NWS San Angelo, TX

Home | Current Version | Previous Version | Text Only | Print | Product List | Glossary On
Versions: 1 2 3 4 5 6 7 8 9 10 11 12 13
000
FTUS44 KSJT 032300
TAFABI
TAF
KABI 032329Z 0400/0424 15014G20KT P6SM SCT250
     FM040900 16012KT P6SM OVC015
     FM041600 17015G22KT P6SM SCT050=

USA.gov is the U.S. government's official web portal to all federal, state and local government web resources and services.